Location: Borgo
(42.3939°N, 9.2791°E)
Time: 13:10:25
(UTC+00:00)

ISS - Pass Details

Date: 27 April 2021
Orbit: 417 x 422 km, 51.6° (Epoch: 15 May)

Event Time Altitude Azimuth Distance (km) Brightness Sun altitude
Exits shadow 03:00:46 21° 191° (S) 1,015 -2.2 -14.4°
Maximum altitude 03:02:29 35° 138° (SE) 701 -2.6 -14.2°
Drops below altitude 10° 03:05:35 10° 71° (ENE) 1,505 0.4 -13.7°
Sets 03:07:48 0° 62° (ENE) 2,374 2.1 -13.3°
